Location: Newark
(16.3678°N, 77.8722°E)
Time: 10:27:46
(UTC+00:00)

S-56A Canister/Altair - Pass Details

Date: 19 December 2019
Orbit: 634 x 2498 km, 38.9° (Epoch: 23 January)

Event Time Altitude Azimuth Distance (km) Brightness Sun altitude
Rises 01:00:37 0° 245° (WSW) 4,094 10.9 -3.0°
Reaches altitude 10° 01:03:05 10° 248° (WSW) 3,341 10.4 -2.5°
Maximum altitude 01:11:44 62° 328° (NNW) 1,923 9.4 -0.6°
Drops below altitude 10° 01:24:40 10° 47° (NE) 4,832 11.9 2.2°
Sets 01:28:59 0° 51° (NE) 6,006 12.4 3.2°
